Time,TemperatureF,DewpointF,PressureIn,WindDirection,WindDirectionDegrees,WindSpeedMPH,WindSpeedGustMPH,Humidity,HourlyPrecipIn,Conditions,Clouds,dailyrainin,SoftwareType,DateUTC
2013-07-04 00:01:00,68.5,47.5,30.09,SSE,158,2.5,2.5,47,0.00,,---,0.00,VWS V14.01,2013-07-04 05:01:00,
2013-07-04 00:06:00,68.4,47.4,30.09,SE,135,2.0,2.5,47,0.00,,---,0.00,VWS V14.01,2013-07-04 05:06:00,
2013-07-04 00:12:00,68.4,47.9,30.09,SE,135,1.1,2.5,48,0.00,,---,0.00,VWS V14.01,2013-07-04 05:12:00,
2013-07-04 00:18:00,68.2,47.8,30.09,SSW,202,0.9,0.9,48,0.00,,---,0.00,VWS V14.01,2013-07-04 05:18:00,
2013-07-04 00:23:00,68.0,47.6,30.09,South,180,2.5,3.1,48,0.00,,---,0.00,VWS V14.01,2013-07-04 05:23:00,
2013-07-04 00:29:00,68.2,47.8,30.09,SE,135,0.0,3.6,48,0.00,,---,0.00,VWS V14.01,2013-07-04 05:29:00,
2013-07-04 00:34:00,67.8,48.0,30.09,SSW,202,0.0,4.0,49,0.00,,---,0.00,VWS V14.01,2013-07-04 05:34:00,
2013-07-04 00:39:00,67.8,48.0,30.09,South,180,2.7,2.9,49,0.00,,---,0.00,VWS V14.01,2013-07-04 05:39:00,
2013-07-04 00:45:00,67.6,47.8,30.09,SSE,158,0.0,0.9,49,0.00,,---,0.00,VWS V14.01,2013-07-04 05:45:00,
2013-07-04 00:50:00,67.6,47.8,30.09,South,180,1.6,2.5,49,0.00,,---,0.00,VWS V14.01,2013-07-04 05:50:00,
2013-07-04 00:56:00,67.5,47.7,30.09,SSE,158,0.0,0.0,49,0.00,,---,0.00,VWS V14.01,2013-07-04 05:56:00,
2013-07-04 01:01:00,67.5,47.7,30.09,ESE,112,0.0,2.7,49,0.00,,---,0.00,VWS V14.01,2013-07-04 06:01:00,
2013-07-04 01:06:00,67.5,48.2,30.09,SSW,202,2.0,3.1,50,0.00,,---,0.00,VWS V14.01,2013-07-04 06:06:00,
2013-07-04 01:12:00,67.5,48.2,30.09,SSW,202,0.0,0.9,50,0.00,,---,0.00,VWS V14.01,2013-07-04 06:12:00,
2013-07-04 01:18:00,67.3,48.0,30.09,South,180,0.0,0.0,50,0.00,,---,0.00,VWS V14.01,2013-07-04 06:18:00,
2013-07-04 01:24:00,67.1,47.9,30.09,South,180,0.9,2.7,50,0.00,,---,0.00,VWS V14.01,2013-07-04 06:24:00,
2013-07-04 01:29:00,67.1,47.9,30.09,SSW,202,1.3,2.7,50,0.00,,---,0.00,VWS V14.01,2013-07-04 06:29:00,
2013-07-04 01:35:00,67.1,47.9,30.09,SSE,158,1.1,1.6,50,0.00,,---,0.00,VWS V14.01,2013-07-04 06:35:00,
2013-07-04 01:41:00,66.9,48.2,30.09,SW,225,1.6,3.1,51,0.00,,---,0.00,VWS V14.01,2013-07-04 06:41:00,
2013-07-04 01:46:00,66.7,48.1,30.09,SE,135,0.0,2.5,51,0.00,,---,0.00,VWS V14.01,2013-07-04 06:46:00,
2013-07-04 01:52:00,66.6,47.9,30.09,SSE,158,0.0,1.1,51,0.00,,---,0.00,VWS V14.01,2013-07-04 06:52:00,
2013-07-04 01:57:00,66.6,48.4,30.09,SSW,202,1.1,1.6,52,0.00,,---,0.00,VWS V14.01,2013-07-04 06:57:00,
2013-07-04 02:03:00,66.6,48.4,30.09,South,180,0.0,2.7,52,0.00,,---,0.00,VWS V14.01,2013-07-04 07:03:00,
2013-07-04 02:08:00,66.6,48.4,30.09,South,180,2.5,2.5,52,0.00,,---,0.00,VWS V14.01,2013-07-04 07:08:00,
2013-07-04 02:14:00,66.6,48.4,30.06,SSE,158,1.3,1.3,52,0.00,,---,0.00,VWS V14.01,2013-07-04 07:14:00,
2013-07-04 02:19:00,66.4,48.2,30.06,SSE,158,2.0,2.7,52,0.00,,---,0.00,VWS V14.01,2013-07-04 07:19:00,
2013-07-04 02:24:00,66.2,48.6,30.06,South,180,1.3,1.3,53,0.00,,---,0.00,VWS V14.01,2013-07-04 07:24:00,
2013-07-04 02:30:00,66.2,48.6,30.09,SSW,202,3.4,3.4,53,0.00,,---,0.00,VWS V14.01,2013-07-04 07:30:00,
2013-07-04 02:35:00,66.2,49.1,30.09,SSE,158,1.3,1.3,54,0.00,,---,0.00,VWS V14.01,2013-07-04 07:35:00,
2013-07-04 02:41:00,66.0,48.9,30.09,South,180,0.9,2.5,54,0.00,,---,0.00,VWS V14.01,2013-07-04 07:41:00,
2013-07-04 02:46:00,65.8,48.8,30.09,South,180,0.0,0.9,54,0.00,,---,0.00,VWS V14.01,2013-07-04 07:46:00,
2013-07-04 02:52:00,65.7,49.1,30.09,SSW,202,0.0,0.0,55,0.00,,---,0.00,VWS V14.01,2013-07-04 07:52:00,
2013-07-04 02:58:00,65.7,49.6,30.12,South,180,0.0,2.9,56,0.00,,---,0.00,VWS V14.01,2013-07-04 07:58:00,
2013-07-04 03:03:00,65.3,48.7,30.12,South,180,2.7,2.7,55,0.00,,---,0.00,VWS V14.01,2013-07-04 08:03:00,
2013-07-04 03:09:00,64.9,48.9,30.12,South,180,0.0,0.9,56,0.00,,---,0.00,VWS V14.01,2013-07-04 08:09:00,
2013-07-04 03:14:00,64.8,48.7,30.09,South,180,0.0,0.0,56,0.00,,---,0.00,VWS V14.01,2013-07-04 08:14:00,
2013-07-04 03:20:00,64.6,49.0,30.09,SSW,202,0.0,0.0,57,0.00,,---,0.00,VWS V14.01,2013-07-04 08:20:00,
2013-07-04 03:25:00,64.2,49.2,30.09,South,180,0.0,0.0,58,0.00,,---,0.00,VWS V14.01,2013-07-04 08:25:00,
2013-07-04 03:31:00,63.7,48.6,30.09,South,180,0.0,0.0,58,0.00,,---,0.00,VWS V14.01,2013-07-04 08:31:00,
2013-07-04 03:37:00,63.3,48.8,30.09,South,180,0.0,0.0,59,0.00,,---,0.00,VWS V14.01,2013-07-04 08:37:00,
2013-07-04 03:42:00,63.0,48.9,30.09,South,180,0.0,0.0,60,0.00,,---,0.00,VWS V14.01,2013-07-04 08:42:00,
2013-07-04 03:47:00,62.8,49.6,30.09,SSW,202,0.0,0.0,62,0.00,,---,0.00,VWS V14.01,2013-07-04 08:47:00,
2013-07-04 03:52:00,62.4,50.1,30.09,SSW,202,0.0,0.0,64,0.00,,---,0.00,VWS V14.01,2013-07-04 08:52:00,
2013-07-04 03:58:00,62.1,50.2,30.09,SSW,202,0.0,0.0,65,0.00,,---,0.00,VWS V14.01,2013-07-04 08:58:00,
2013-07-04 04:03:00,61.7,50.2,30.09,South,180,0.0,2.0,66,0.00,,---,0.00,VWS V14.01,2013-07-04 09:03:00,
2013-07-04 04:09:00,61.5,50.5,30.09,South,180,0.0,0.0,67,0.00,,---,0.00,VWS V14.01,2013-07-04 09:09:00,
2013-07-04 04:15:00,61.3,50.7,30.09,South,180,0.0,0.0,68,0.00,,---,0.00,VWS V14.01,2013-07-04 09:15:00,
2013-07-04 04:20:00,61.3,51.5,30.09,SSW,202,2.0,2.2,70,0.00,,---,0.00,VWS V14.01,2013-07-04 09:20:00,
2013-07-04 04:25:00,61.5,51.7,30.09,South,180,0.0,2.0,70,0.00,,---,0.00,VWS V14.01,2013-07-04 09:25:00,
2013-07-04 04:30:00,61.7,51.4,30.09,SE,135,0.0,0.0,69,0.00,,---,0.00,VWS V14.01,2013-07-04 09:30:00,
2013-07-04 04:36:00,61.7,51.0,30.09,South,180,0.9,1.3,68,0.00,,---,0.00,VWS V14.01,2013-07-04 09:36:00,
2013-07-04 04:41:00,61.9,51.6,30.09,South,180,0.0,1.1,69,0.00,,---,0.00,VWS V14.01,2013-07-04 09:41:00,
2013-07-04 04:47:00,62.2,52.0,30.09,South,180,0.0,0.0,69,0.00,,---,0.00,VWS V14.01,2013-07-04 09:47:00,
2013-07-04 04:52:00,62.4,51.7,30.09,SSW,202,0.0,1.3,68,0.00,,---,0.00,VWS V14.01,2013-07-04 09:52:00,
2013-07-04 04:57:00,62.6,51.5,30.09,SSE,158,2.5,2.5,67,0.00,,---,0.00,VWS V14.01,2013-07-04 09:57:00,
2013-07-04 05:02:00,62.6,51.5,30.09,SSE,158,0.0,0.0,67,0.00,,---,0.00,VWS V14.01,2013-07-04 10:02:00,
2013-07-04 05:08:00,62.2,51.2,30.09,SSE,158,0.0,0.0,67,0.00,,---,0.00,VWS V14.01,2013-07-04 10:08:00,
2013-07-04 05:13:00,61.9,50.8,30.12,SSE,158,0.0,0.0,67,0.00,,---,0.00,VWS V14.01,2013-07-04 10:13:00,
2013-07-04 05:18:00,61.5,50.5,30.12,SSW,202,0.0,0.0,67,0.00,,---,0.00,VWS V14.01,2013-07-04 10:18:00,
2013-07-04 05:23:00,61.3,50.7,30.12,SW,225,0.0,0.0,68,0.00,,---,0.00,VWS V14.01,2013-07-04 10:23:00,
2013-07-04 05:29:00,61.0,50.8,30.09,WNW,292,1.3,2.2,69,0.00,,---,0.00,VWS V14.01,2013-07-04 10:29:00,
2013-07-04 05:34:00,61.0,50.8,30.09,WNW,292,2.0,2.5,69,0.00,,---,0.00,VWS V14.01,2013-07-04 10:34:00,
2013-07-04 05:40:00,61.0,51.9,30.09,NE,45,2.2,2.2,72,0.00,,---,0.00,VWS V14.01,2013-07-04 10:40:00,
2013-07-04 05:45:00,60.6,51.2,30.09,NE,45,0.0,0.0,71,0.00,,---,0.00,VWS V14.01,2013-07-04 10:45:00,
2013-07-04 05:51:00,60.3,50.8,30.09,NE,45,1.1,1.6,71,0.00,,---,0.00,VWS V14.01,2013-07-04 10:51:00,
2013-07-04 05:56:00,60.1,51.0,30.09,NE,45,0.0,0.0,72,0.00,,---,0.00,VWS V14.01,2013-07-04 10:56:00,
2013-07-04 06:01:00,59.5,50.9,30.09,ENE,68,0.0,0.0,73,0.00,,---,0.00,VWS V14.01,2013-07-04 11:01:00,
2013-07-04 06:07:00,59.4,51.5,30.09,ENE,68,0.0,0.0,75,0.00,,---,0.00,VWS V14.01,2013-07-04 11:07:00,
2013-07-04 06:12:00,59.4,51.8,30.06,SSE,158,0.0,0.0,76,0.00,,---,0.00,VWS V14.01,2013-07-04 11:12:00,
2013-07-04 06:18:00,59.0,51.1,30.06,SSE,158,0.0,0.0,75,0.00,,---,0.00,VWS V14.01,2013-07-04 11:18:00,
2013-07-04 06:24:00,59.4,51.8,30.06,SSE,158,0.0,1.6,76,0.00,,---,0.00,VWS V14.01,2013-07-04 11:24:00,
2013-07-04 06:30:00,59.9,52.7,30.09,South,180,0.0,0.0,77,0.00,,---,0.00,VWS V14.01,2013-07-04 11:30:00,
2013-07-04 06:36:00,60.1,52.5,30.09,South,180,0.0,0.0,76,0.00,,---,0.00,VWS V14.01,2013-07-04 11:36:00,
2013-07-04 06:41:00,60.8,52.8,30.06,South,180,1.3,1.3,75,0.00,,---,0.00,VWS V14.01,2013-07-04 11:41:00,
2013-07-04 06:47:00,61.7,53.3,30.06,South,180,1.1,1.6,74,0.00,,---,0.00,VWS V14.01,2013-07-04 11:47:00,
2013-07-04 06:53:00,62.4,53.3,30.06,South,180,3.4,3.6,72,0.00,,---,0.00,VWS V14.01,2013-07-04 11:53:00,
2013-07-04 06:58:00,62.6,53.1,30.09,SW,225,1.3,2.2,71,0.00,,---,0.00,VWS V14.01,2013-07-04 11:58:00,
2013-07-04 07:04:00,63.0,53.4,30.09,South,180,1.3,2.7,71,0.00,,---,0.00,VWS V14.01,2013-07-04 12:04:00,
2013-07-04 07:10:00,63.3,53.4,30.06,SSE,158,2.9,2.9,70,0.00,,---,0.00,VWS V14.01,2013-07-04 12:10:00,
2013-07-04 07:15:00,63.5,53.5,30.06,SSE,158,0.0,0.0,70,0.00,,---,0.00,VWS V14.01,2013-07-04 12:15:00,
2013-07-04 07:21:00,63.9,53.9,30.06,South,180,0.0,2.5,70,0.00,,---,0.00,VWS V14.01,2013-07-04 12:21:00,
2013-07-04 07:26:00,65.1,54.7,30.09,SE,135,4.0,4.0,69,0.00,,---,0.00,VWS V14.01,2013-07-04 12:26:00,
2013-07-04 07:32:00,65.7,54.4,30.09,South,180,1.3,1.3,67,0.00,,---,0.00,VWS V14.01,2013-07-04 12:32:00,
2013-07-04 07:37:00,66.4,54.3,30.09,SSE,158,2.7,3.1,65,0.00,,---,0.00,VWS V14.01,2013-07-04 12:37:00,
2013-07-04 07:43:00,67.5,54.4,30.09,SSW,202,1.3,1.3,63,0.00,,---,0.00,VWS V14.01,2013-07-04 12:43:00,
2013-07-04 07:48:00,68.7,55.2,30.09,SSE,158,3.8,3.8,62,0.00,,---,0.00,VWS V14.01,2013-07-04 12:48:00,
2013-07-04 07:53:00,69.4,55.0,30.09,ESE,112,2.5,2.5,60,0.00,,---,0.00,VWS V14.01,2013-07-04 12:53:00,
2013-07-04 07:59:00,68.9,54.0,30.12,ESE,112,1.3,2.5,59,0.00,,---,0.00,VWS V14.01,2013-07-04 12:59:00,
2013-07-04 08:04:00,69.4,54.5,30.12,SSE,158,4.3,4.3,59,0.00,,---,0.00,VWS V14.01,2013-07-04 13:04:00,
2013-07-04 08:10:00,70.2,54.2,30.09,SE,135,2.9,6.5,57,0.00,,---,0.00,VWS V14.01,2013-07-04 13:10:00,
2013-07-04 08:15:00,70.9,53.9,30.09,SE,135,0.0,3.8,55,0.00,,---,0.00,VWS V14.01,2013-07-04 13:15:00,
2013-07-04 08:20:00,70.7,53.8,30.09,SE,135,0.9,3.4,55,0.00,,---,0.00,VWS V14.01,2013-07-04 13:20:00,
2013-07-04 08:25:00,70.3,53.4,30.09,ESE,112,6.3,6.3,55,0.00,,---,0.00,VWS V14.01,2013-07-04 13:25:00,
2013-07-04 08:31:00,70.0,53.6,30.09,SE,135,6.0,6.0,56,0.00,,---,0.00,VWS V14.01,2013-07-04 13:31:00,
2013-07-04 08:36:00,69.8,52.9,30.09,ESE,112,5.4,6.3,55,0.00,,---,0.00,VWS V14.01,2013-07-04 13:36:00,
2013-07-04 08:42:00,69.8,53.4,30.09,SSE,158,3.8,4.3,56,0.00,,---,0.00,VWS V14.01,2013-07-04 13:42:00,
2013-07-04 08:48:00,70.5,54.1,30.09,South,180,0.0,0.9,56,0.00,,---,0.00,VWS V14.01,2013-07-04 13:48:00,
2013-07-04 08:54:00,71.1,53.6,30.09,SSW,202,2.9,6.0,54,0.00,,---,0.00,VWS V14.01,2013-07-04 13:54:00,
2013-07-04 09:00:00,72.0,54.4,30.09,ESE,112,4.3,4.3,54,0.00,,---,0.00,VWS V14.01,2013-07-04 14:00:00,
2013-07-04 09:05:00,72.3,54.8,30.09,SSE,158,3.1,3.1,54,0.00,,---,0.00,VWS V14.01,2013-07-04 14:05:00,
2013-07-04 09:10:00,72.7,54.1,30.09,ESE,112,5.6,5.6,52,0.00,,---,0.00,VWS V14.01,2013-07-04 14:10:00,
2013-07-04 09:16:00,72.7,54.1,30.09,SE,135,2.9,3.4,52,0.00,,---,0.00,VWS V14.01,2013-07-04 14:16:00,
2013-07-04 09:21:00,72.9,54.8,30.09,SSW,202,1.6,2.5,53,0.00,,---,0.00,VWS V14.01,2013-07-04 14:21:00,
2013-07-04 09:27:00,72.9,54.2,30.09,SSE,158,8.7,8.7,52,0.00,,---,0.00,VWS V14.01,2013-07-04 14:27:00,
2013-07-04 09:32:00,72.5,53.9,30.09,South,180,0.0,0.0,52,0.00,,---,0.00,VWS V14.01,2013-07-04 14:32:00,
2013-07-04 09:38:00,72.0,53.4,30.09,SSE,158,4.7,5.4,52,0.00,,---,0.00,VWS V14.01,2013-07-04 14:38:00,
2013-07-04 09:43:00,72.3,53.7,30.09,SSW,202,0.9,1.3,52,0.00,,---,0.00,VWS V14.01,2013-07-04 14:43:00,
2013-07-04 09:49:00,72.7,54.1,30.09,SE,135,2.7,3.4,52,0.00,,---,0.00,VWS V14.01,2013-07-04 14:49:00,
2013-07-04 09:55:00,72.7,54.6,30.09,ESE,112,3.1,3.6,53,0.00,,---,0.00,VWS V14.01,2013-07-04 14:55:00,
2013-07-04 10:00:00,126.3,99.9,30.09,South,180,2.2,2.2,100,0.00,,---,0.00,VWS V14.01,2013-07-04 15:00:00,
2013-07-04 10:06:00,72.5,54.9,30.09,SE,135,4.7,5.8,54,0.00,,---,0.00,VWS V14.01,2013-07-04 15:06:00,
2013-07-04 10:12:00,72.5,54.4,30.09,East,90,3.8,4.7,53,0.00,,---,0.00,VWS V14.01,2013-07-04 15:12:00,
2013-07-04 10:17:00,73.4,54.7,30.09,South,180,2.5,3.8,52,0.00,,---,0.00,VWS V14.01,2013-07-04 15:17:00,
2013-07-04 10:23:00,73.9,55.8,30.09,ESE,112,4.0,5.4,53,0.00,,---,0.00,VWS V14.01,2013-07-04 15:23:00,
2013-07-04 10:28:00,74.5,55.2,30.09,SE,135,2.0,3.8,51,0.00,,---,0.00,VWS V14.01,2013-07-04 15:28:00,
2013-07-04 10:34:00,74.8,55.0,30.09,South,180,1.1,4.9,50,0.00,,---,0.00,VWS V14.01,2013-07-04 15:34:00,
2013-07-04 10:40:00,76.1,55.0,30.09,SSW,202,0.9,2.9,48,0.00,,---,0.00,VWS V14.01,2013-07-04 15:40:00,
2013-07-04 10:45:00,76.8,55.7,30.09,SSW,202,1.3,2.0,48,0.00,,---,0.00,VWS V14.01,2013-07-04 15:45:00,
2013-07-04 10:51:00,77.5,55.2,30.09,SSW,202,1.3,4.5,46,0.00,,---,0.00,VWS V14.01,2013-07-04 15:51:00,
2013-07-04 10:56:00,78.4,56.6,30.09,South,180,2.2,2.5,47,0.00,,---,0.00,VWS V14.01,2013-07-04 15:56:00,
2013-07-04 11:02:00,79.0,56.5,30.09,SSE,158,2.2,2.7,46,0.00,,---,0.00,VWS V14.01,2013-07-04 16:02:00,
2013-07-04 11:08:00,79.3,55.6,30.09,SW,225,0.0,2.0,44,0.00,,---,0.00,VWS V14.01,2013-07-04 16:08:00,
2013-07-04 11:13:00,79.9,55.4,30.09,SW,225,0.0,2.2,43,0.00,,---,0.00,VWS V14.01,2013-07-04 16:13:00,
2013-07-04 11:19:00,79.7,53.9,30.09,SSW,202,1.6,2.5,41,0.00,,---,0.00,VWS V14.01,2013-07-04 16:19:00,
2013-07-04 11:24:00,79.7,53.9,30.09,SSW,202,1.6,3.4,41,0.00,,---,0.00,VWS V14.01,2013-07-04 16:24:00,
2013-07-04 11:30:00,79.7,53.9,30.09,WSW,248,3.4,3.8,41,0.00,,---,0.00,VWS V14.01,2013-07-04 16:30:00,
2013-07-04 11:36:00,80.1,54.3,30.09,SSW,202,0.9,2.2,41,0.00,,---,0.00,VWS V14.01,2013-07-04 16:36:00,
2013-07-04 11:41:00,79.9,54.1,30.06,South,180,4.9,4.9,41,0.00,,---,0.00,VWS V14.01,2013-07-04 16:41:00,
2013-07-04 11:47:00,79.9,54.1,30.06,SW,225,2.0,2.7,41,0.00,,---,0.00,VWS V14.01,2013-07-04 16:47:00,
2013-07-04 11:52:00,80.2,54.4,30.06,SSW,202,1.6,1.6,41,0.00,,---,0.00,VWS V14.01,2013-07-04 16:52:00,
2013-07-04 11:58:00,80.6,54.1,30.09,SSW,202,1.6,3.4,40,0.00,,---,0.00,VWS V14.01,2013-07-04 16:58:00,
2013-07-04 12:04:00,80.8,54.9,30.09,SSE,158,0.0,1.3,41,0.00,,---,0.00,VWS V14.01,2013-07-04 17:04:00,
2013-07-04 12:09:00,80.6,54.8,30.09,SE,135,2.5,4.0,41,0.00,,---,0.00,VWS V14.01,2013-07-04 17:09:00,
2013-07-04 12:15:00,80.8,54.9,30.09,SSE,158,4.0,4.0,41,0.00,,---,0.00,VWS V14.01,2013-07-04 17:15:00,
2013-07-04 12:20:00,81.1,55.2,30.09,South,180,2.5,2.9,41,0.00,,---,0.00,VWS V14.01,2013-07-04 17:20:00,
2013-07-04 12:25:00,81.5,55.5,30.09,SSW,202,1.1,2.5,41,0.00,,---,0.00,VWS V14.01,2013-07-04 17:25:00,
2013-07-04 12:30:00,81.9,55.2,30.09,SE,135,0.0,4.3,40,0.00,,---,0.00,VWS V14.01,2013-07-04 17:30:00,
2013-07-04 12:35:00,82.0,55.4,30.09,South,180,3.1,3.1,40,0.00,,---,0.00,VWS V14.01,2013-07-04 17:35:00,
2013-07-04 12:40:00,82.4,55.7,30.09,SSE,158,3.1,3.1,40,0.00,,---,0.00,VWS V14.01,2013-07-04 17:40:00,
2013-07-04 12:45:00,82.8,56.0,30.09,SSE,158,5.4,5.4,40,0.00,,---,0.00,VWS V14.01,2013-07-04 17:45:00,
2013-07-04 12:50:00,83.1,55.6,30.09,South,180,1.1,3.4,39,0.00,,---,0.00,VWS V14.01,2013-07-04 17:50:00,
2013-07-04 12:55:00,83.3,55.8,30.09,East,90,2.7,2.7,39,0.00,,---,0.00,VWS V14.01,2013-07-04 17:55:00,
2013-07-04 13:00:00,83.3,55.8,30.09,SE,135,3.1,4.3,39,0.00,,---,0.00,VWS V14.01,2013-07-04 18:00:00,
2013-07-04 13:06:00,83.5,55.9,30.09,ESE,112,3.1,3.4,39,0.00,,---,0.00,VWS V14.01,2013-07-04 18:06:00,
2013-07-04 13:11:00,83.8,56.3,30.09,SE,135,6.0,6.0,39,0.00,,---,0.00,VWS V14.01,2013-07-04 18:11:00,
2013-07-04 13:16:00,83.8,56.3,30.09,SSE,158,3.6,5.4,39,0.00,,---,0.00,VWS V14.01,2013-07-04 18:16:00,
2013-07-04 13:21:00,84.0,55.7,30.09,SSE,158,2.9,3.6,38,0.00,,---,0.00,VWS V14.01,2013-07-04 18:21:00,
2013-07-04 13:26:00,84.7,56.3,30.06,SE,135,0.0,2.9,38,0.00,,---,0.00,VWS V14.01,2013-07-04 18:26:00,
2013-07-04 13:31:00,85.1,56.7,30.06,SSE,158,2.0,2.7,38,0.00,,---,0.00,VWS V14.01,2013-07-04 18:31:00,
2013-07-04 13:36:00,86.0,56.7,30.06,WSW,248,2.7,2.7,37,0.00,,---,0.00,VWS V14.01,2013-07-04 18:36:00,
2013-07-04 13:41:00,86.7,56.6,30.06,SSW,202,3.6,5.4,36,0.00,,---,0.00,VWS V14.01,2013-07-04 18:41:00,
2013-07-04 13:46:00,86.9,56.0,30.06,SE,135,7.2,7.2,35,0.00,,---,0.00,VWS V14.01,2013-07-04 18:46:00,
2013-07-04 13:51:00,87.8,56.8,30.06,SSE,158,8.1,8.1,35,0.00,,---,0.00,VWS V14.01,2013-07-04 18:51:00,
2013-07-04 13:56:00,89.4,58.2,30.03,ESE,112,0.0,7.2,35,0.00,,---,0.00,VWS V14.01,2013-07-04 18:56:00,
2013-07-04 14:01:00,90.5,57.5,30.03,SSE,158,4.3,6.3,33,0.00,,---,0.00,VWS V14.01,2013-07-04 19:01:00,
2013-07-04 14:06:00,90.9,57.0,30.03,SSE,158,6.0,7.8,32,0.00,,---,0.00,VWS V14.01,2013-07-04 19:06:00,
2013-07-04 14:12:00,92.1,58.0,30.03,SSW,202,1.6,4.3,32,0.00,,---,0.00,VWS V14.01,2013-07-04 19:12:00,
2013-07-04 14:17:00,91.9,57.0,30.03,SSW,202,0.9,6.0,31,0.00,,---,0.00,VWS V14.01,2013-07-04 19:17:00,
2013-07-04 14:22:00,92.3,57.3,30.03,South,180,5.4,6.3,31,0.00,,---,0.00,VWS V14.01,2013-07-04 19:22:00,
2013-07-04 14:27:00,91.9,57.0,30.03,SE,135,5.4,5.4,31,0.00,,---,0.00,VWS V14.01,2013-07-04 19:27:00,
2013-07-04 14:32:00,91.2,55.5,30.03,SSE,158,2.5,6.5,30,0.00,,---,0.00,VWS V14.01,2013-07-04 19:32:00,
2013-07-04 14:37:00,92.8,56.9,30.03,East,90,3.6,7.4,30,0.00,,---,0.00,VWS V14.01,2013-07-04 19:37:00,
2013-07-04 14:42:00,92.8,56.9,30.00,SE,135,6.0,6.0,30,0.00,,---,0.00,VWS V14.01,2013-07-04 19:42:00,
2013-07-04 14:47:00,94.1,57.0,30.00,SSW,202,2.9,3.8,29,0.00,,---,0.00,VWS V14.01,2013-07-04 19:47:00,
2013-07-04 14:52:00,94.6,57.5,30.00,SSE,158,5.4,8.1,29,0.00,,---,0.00,VWS V14.01,2013-07-04 19:52:00,
2013-07-04 14:57:00,93.7,55.7,30.03,East,90,6.5,9.8,28,0.00,,---,0.00,VWS V14.01,2013-07-04 19:57:00,
2013-07-04 15:02:00,93.4,55.4,30.03,ESE,112,7.2,9.6,28,0.00,,---,0.00,VWS V14.01,2013-07-04 20:02:00,
2013-07-04 15:07:00,93.2,56.2,30.03,East,90,6.3,10.7,29,0.00,,---,0.00,VWS V14.01,2013-07-04 20:07:00,
2013-07-04 15:12:00,93.7,55.7,30.03,SSE,158,4.7,7.8,28,0.00,,---,0.00,VWS V14.01,2013-07-04 20:12:00,
2013-07-04 15:15:00,94.8,55.7,30.03,SE,135,1.6,6.0,27,0.00,,---,0.00,VWS V14.01,2013-07-04 20:15:00,
2013-07-04 15:20:00,97.0,57.5,30.03,SSE,158,3.8,4.7,27,0.00,,---,0.00,VWS V14.01,2013-07-04 20:20:00,
2013-07-04 15:25:00,96.3,57.9,30.03,East,90,2.9,4.3,28,0.00,,---,0.00,VWS V14.01,2013-07-04 20:25:00,
2013-07-04 15:31:00,96.4,57.0,30.03,SE,135,3.6,6.3,27,0.00,,---,0.00,VWS V14.01,2013-07-04 20:31:00,
2013-07-04 15:36:00,93.7,54.7,30.03,East,90,5.8,10.3,27,0.00,,---,0.00,VWS V14.01,2013-07-04 20:36:00,
2013-07-04 15:41:00,94.3,55.2,30.03,ESE,112,3.1,3.1,27,0.00,,---,0.00,VWS V14.01,2013-07-04 20:41:00,
2013-07-04 15:46:00,95.2,54.9,30.03,SSE,158,2.5,3.8,26,0.00,,---,0.00,VWS V14.01,2013-07-04 20:46:00,
2013-07-04 15:51:00,94.8,54.6,30.03,SSW,202,1.1,3.8,26,0.00,,---,0.00,VWS V14.01,2013-07-04 20:51:00,
2013-07-04 15:56:00,93.7,52.6,30.00,SSW,202,2.7,2.7,25,0.00,,---,0.00,VWS V14.01,2013-07-04 20:56:00,
2013-07-04 16:01:00,94.8,54.6,30.00,SSW,202,0.0,3.1,26,0.00,,---,0.00,VWS V14.01,2013-07-04 21:01:00,
2013-07-04 16:06:00,97.0,56.4,30.00,South,180,2.7,2.7,26,0.00,,---,0.00,VWS V14.01,2013-07-04 21:06:00,
2013-07-04 16:11:00,97.7,56.0,30.00,SSE,158,4.3,6.0,25,0.00,,---,0.00,VWS V14.01,2013-07-04 21:11:00,
2013-07-04 16:16:00,97.3,54.5,30.00,SE,135,3.4,5.4,24,0.00,,---,0.00,VWS V14.01,2013-07-04 21:16:00,
2013-07-04 16:21:00,95.0,51.4,30.00,ESE,112,4.9,9.6,23,0.00,,---,0.00,VWS V14.01,2013-07-04 21:21:00,
2013-07-04 16:26:00,93.0,53.1,30.00,SE,135,0.0,4.0,26,0.00,,---,0.00,VWS V14.01,2013-07-04 21:26:00,
2013-07-04 16:31:00,92.3,51.4,30.00,SE,135,7.4,7.6,25,0.00,,---,0.00,VWS V14.01,2013-07-04 21:31:00,
2013-07-04 16:36:00,91.2,52.6,30.00,ESE,112,2.9,7.6,27,0.00,,---,0.00,VWS V14.01,2013-07-04 21:36:00,
2013-07-04 16:41:00,92.5,53.7,30.00,SE,135,5.4,6.3,27,0.00,,---,0.00,VWS V14.01,2013-07-04 21:41:00,
2013-07-04 16:46:00,93.2,53.2,30.00,SE,135,1.6,1.6,26,0.00,,---,0.00,VWS V14.01,2013-07-04 21:46:00,
2013-07-04 16:51:00,91.9,53.2,30.00,ESE,112,1.3,2.5,27,0.00,,---,0.00,VWS V14.01,2013-07-04 21:51:00,
2013-07-04 16:56:00,91.9,53.2,30.00,SSE,158,7.2,7.2,27,0.00,,---,0.00,VWS V14.01,2013-07-04 21:56:00,
2013-07-04 17:01:00,92.7,53.8,30.00,SSW,202,7.6,7.6,27,0.00,,---,0.00,VWS V14.01,2013-07-04 22:01:00,
2013-07-04 17:06:00,92.1,53.4,30.00,South,180,6.3,9.6,27,0.00,,---,0.00,VWS V14.01,2013-07-04 22:06:00,
2013-07-04 17:11:00,91.0,52.5,30.00,SSW,202,2.7,7.2,27,0.00,,---,0.00,VWS V14.01,2013-07-04 22:11:00,
2013-07-04 17:16:00,91.0,53.4,30.00,South,180,4.0,10.1,28,0.00,,---,0.00,VWS V14.01,2013-07-04 22:16:00,
2013-07-04 17:21:00,91.9,53.2,30.00,SE,135,4.3,5.8,27,0.00,,---,0.00,VWS V14.01,2013-07-04 22:21:00,
2013-07-04 17:26:00,92.3,53.5,29.97,ESE,112,12.1,12.8,27,0.00,,---,0.00,VWS V14.01,2013-07-04 22:26:00,
2013-07-04 17:31:00,91.8,53.1,29.97,SE,135,8.1,8.5,27,0.00,,---,0.00,VWS V14.01,2013-07-04 22:31:00,
2013-07-04 17:36:00,91.4,52.8,29.97,South,180,6.0,6.0,27,0.00,,---,0.00,VWS V14.01,2013-07-04 22:36:00,
2013-07-04 17:41:00,91.0,53.4,30.00,East,90,8.1,17.5,28,0.00,,---,0.00,VWS V14.01,2013-07-04 22:41:00,
2013-07-04 17:46:00,91.4,52.8,30.00,SE,135,5.4,5.4,27,0.00,,---,0.00,VWS V14.01,2013-07-04 22:46:00,
2013-07-04 17:51:00,91.9,53.2,30.00,SE,135,4.9,6.5,27,0.00,,---,0.00,VWS V14.01,2013-07-04 22:51:00,
2013-07-04 17:56:00,91.6,52.9,29.97,South,180,6.0,7.8,27,0.00,,---,0.00,VWS V14.01,2013-07-04 22:56:00,
2013-07-04 18:01:00,90.7,53.1,29.97,SSE,158,4.9,9.8,28,0.00,,---,0.00,VWS V14.01,2013-07-04 23:01:00,
2013-07-04 18:06:00,90.1,52.7,29.97,East,90,5.6,12.5,28,0.00,,---,0.00,VWS V14.01,2013-07-04 23:06:00,
2013-07-04 18:11:00,90.0,52.5,29.97,SE,135,3.4,4.3,28,0.00,,---,0.00,VWS V14.01,2013-07-04 23:11:00,
2013-07-04 18:16:00,90.1,53.6,29.97,ESE,112,2.9,7.6,29,0.00,,---,0.00,VWS V14.01,2013-07-04 23:16:00,
2013-07-04 18:21:00,90.1,52.7,29.97,SSW,202,4.0,6.0,28,0.00,,---,0.00,VWS V14.01,2013-07-04 23:21:00,
2013-07-04 18:26:00,90.5,53.9,29.97,East,90,1.6,2.7,29,0.00,,---,0.00,VWS V14.01,2013-07-04 23:26:00,
2013-07-04 18:31:00,90.7,53.1,29.97,East,90,8.7,8.7,28,0.00,,---,0.00,VWS V14.01,2013-07-04 23:31:00,
2013-07-04 18:36:00,90.1,52.7,29.97,SSE,158,3.6,11.9,28,0.00,,---,0.00,VWS V14.01,2013-07-04 23:36:00,
2013-07-04 18:41:00,90.1,53.6,29.97,SSW,202,0.9,9.4,29,0.00,,---,0.00,VWS V14.01,2013-07-04 23:41:00,
2013-07-04 18:46:00,89.8,53.3,29.97,South,180,7.2,10.5,29,0.00,,---,0.00,VWS V14.01,2013-07-04 23:46:00,
2013-07-04 18:51:00,89.4,53.0,29.97,SSW,202,10.7,10.7,29,0.00,,---,0.00,VWS V14.01,2013-07-04 23:51:00,
2013-07-04 18:56:00,89.2,53.8,29.97,SE,135,4.9,9.6,30,0.00,,---,0.00,VWS V14.01,2013-07-04 23:56:00,
2013-07-04 19:01:00,89.4,53.9,29.97,ESE,112,3.8,6.0,30,0.00,,---,0.00,VWS V14.01,2013-07-05 00:01:00,
2013-07-04 19:06:00,89.1,53.6,29.97,South,180,5.4,11.0,30,0.00,,---,0.00,VWS V14.01,2013-07-05 00:06:00,
2013-07-04 19:11:00,88.7,52.4,29.97,SE,135,6.3,10.5,29,0.00,,---,0.00,VWS V14.01,2013-07-05 00:11:00,
2013-07-04 19:16:00,88.3,52.1,29.97,SE,135,8.7,10.1,29,0.00,,---,0.00,VWS V14.01,2013-07-05 00:16:00,
2013-07-04 19:21:00,88.0,52.7,29.97,ESE,112,3.1,5.8,30,0.00,,---,0.00,VWS V14.01,2013-07-05 00:21:00,
2013-07-04 19:26:00,87.8,52.5,29.97,SSW,202,6.5,6.5,30,0.00,,---,0.00,VWS V14.01,2013-07-05 00:26:00,
2013-07-04 19:31:00,87.6,52.4,29.97,SE,135,6.5,6.5,30,0.00,,---,0.00,VWS V14.01,2013-07-05 00:31:00,
2013-07-04 19:36:00,87.3,52.1,29.97,SE,135,4.9,9.0,30,0.00,,---,0.00,VWS V14.01,2013-07-05 00:36:00,
2013-07-04 19:41:00,87.1,51.9,29.97,SSE,158,4.7,7.4,30,0.00,,---,0.00,VWS V14.01,2013-07-05 00:41:00,
2013-07-04 19:46:00,86.9,51.8,29.97,ESE,112,6.0,6.5,30,0.00,,---,0.00,VWS V14.01,2013-07-05 00:46:00,
2013-07-04 19:51:00,86.5,51.5,29.97,South,180,0.9,3.6,30,0.00,,---,0.00,VWS V14.01,2013-07-05 00:51:00,
2013-07-04 19:56:00,86.2,51.1,30.00,SSE,158,5.4,5.4,30,0.00,,---,0.00,VWS V14.01,2013-07-05 00:56:00,
2013-07-04 20:01:00,85.6,51.6,30.00,SSE,158,4.0,5.8,31,0.00,,---,0.00,VWS V14.01,2013-07-05 01:01:00,
2013-07-04 20:06:00,85.5,51.4,30.00,South,180,1.6,4.9,31,0.00,,---,0.00,VWS V14.01,2013-07-05 01:06:00,
2013-07-04 20:12:00,84.7,50.8,30.00,SE,135,5.8,6.3,31,0.00,,---,0.00,VWS V14.01,2013-07-05 01:12:00,
2013-07-04 20:17:00,84.4,50.5,30.00,SSE,158,3.6,3.6,31,0.00,,---,0.00,VWS V14.01,2013-07-05 01:17:00,
2013-07-04 20:22:00,84.0,51.0,30.00,SE,135,4.3,7.6,32,0.00,,---,0.00,VWS V14.01,2013-07-05 01:22:00,
2013-07-04 20:27:00,83.5,50.5,30.00,South,180,3.4,6.0,32,0.00,,---,0.00,VWS V14.01,2013-07-05 01:27:00,
2013-07-04 20:32:00,82.9,50.1,30.00,SSW,202,1.6,2.0,32,0.00,,---,0.00,VWS V14.01,2013-07-05 01:32:00,
2013-07-04 20:37:00,82.6,49.8,30.00,South,180,2.0,2.9,32,0.00,,---,0.00,VWS V14.01,2013-07-05 01:37:00,
2013-07-04 20:42:00,81.9,50.0,29.97,East,90,1.1,5.4,33,0.00,,---,0.00,VWS V14.01,2013-07-05 01:42:00,
2013-07-04 20:47:00,81.5,50.5,29.97,South,180,1.6,2.7,34,0.00,,---,0.00,VWS V14.01,2013-07-05 01:47:00,
2013-07-04 20:52:00,81.0,50.0,29.97,SE,135,1.6,4.3,34,0.00,,---,0.00,VWS V14.01,2013-07-05 01:52:00,
2013-07-04 20:57:00,80.6,49.7,30.00,SSW,202,0.0,4.0,34,0.00,,---,0.00,VWS V14.01,2013-07-05 01:57:00,
2013-07-04 21:02:00,80.1,50.0,30.00,East,90,0.0,2.9,35,0.00,,---,0.00,VWS V14.01,2013-07-05 02:02:00,
2013-07-04 21:07:00,79.9,49.8,30.00,SE,135,2.7,3.8,35,0.00,,---,0.00,VWS V14.01,2013-07-05 02:07:00,
2013-07-04 21:12:00,79.5,50.2,30.00,SE,135,3.6,3.6,36,0.00,,---,0.00,VWS V14.01,2013-07-05 02:12:00,
2013-07-04 21:18:00,79.2,49.9,30.00,ESE,112,1.6,4.9,36,0.00,,---,0.00,VWS V14.01,2013-07-05 02:18:00,
2013-07-04 21:23:00,79.0,50.5,30.00,SSE,158,2.5,4.7,37,0.00,,---,0.00,VWS V14.01,2013-07-05 02:23:00,
2013-07-04 21:29:00,78.8,50.4,30.00,South,180,3.8,4.7,37,0.00,,---,0.00,VWS V14.01,2013-07-05 02:29:00,
2013-07-04 21:35:00,78.8,50.4,30.00,SSW,202,0.0,2.9,37,0.00,,---,0.00,VWS V14.01,2013-07-05 02:35:00,
2013-07-04 21:40:00,78.6,50.9,30.00,South,180,2.0,2.2,38,0.00,,---,0.00,VWS V14.01,2013-07-05 02:40:00,
2013-07-04 21:46:00,78.4,50.8,30.00,South,180,2.7,4.5,38,0.00,,---,0.00,VWS V14.01,2013-07-05 02:46:00,
2013-07-04 21:51:00,78.3,50.6,30.00,SE,135,3.4,3.4,38,0.00,,---,0.00,VWS V14.01,2013-07-05 02:51:00,
2013-07-04 21:57:00,77.7,50.8,30.00,East,90,1.6,2.7,39,0.00,,---,0.00,VWS V14.01,2013-07-05 02:57:00,
2013-07-04 22:03:00,77.7,50.8,30.00,SSW,202,2.5,3.4,39,0.00,,---,0.00,VWS V14.01,2013-07-05 03:03:00,
2013-07-04 22:08:00,77.5,51.3,30.00,East,90,1.3,3.1,40,0.00,,---,0.00,VWS V14.01,2013-07-05 03:08:00,
2013-07-04 22:13:00,77.5,51.3,30.00,South,180,3.1,4.0,40,0.00,,---,0.00,VWS V14.01,2013-07-05 03:13:00,
2013-07-04 22:19:00,77.5,51.3,30.00,SW,225,3.6,3.6,40,0.00,,---,0.00,VWS V14.01,2013-07-05 03:19:00,
2013-07-04 22:25:00,77.5,51.3,30.03,SSE,158,7.4,7.4,40,0.00,,---,0.00,VWS V14.01,2013-07-05 03:25:00,
2013-07-04 22:31:00,77.4,51.2,30.03,SSE,158,3.6,4.9,40,0.00,,---,0.00,VWS V14.01,2013-07-05 03:31:00,
2013-07-04 22:36:00,77.2,51.7,30.03,SSE,158,3.1,3.1,41,0.00,,---,0.00,VWS V14.01,2013-07-05 03:36:00,
2013-07-04 22:42:00,77.2,51.7,30.03,SE,135,7.4,7.4,41,0.00,,---,0.00,VWS V14.01,2013-07-05 03:42:00,
2013-07-04 22:47:00,77.2,51.7,30.03,East,90,2.5,5.4,41,0.00,,---,0.00,VWS V14.01,2013-07-05 03:47:00,
2013-07-04 22:53:00,77.0,51.5,30.03,SSE,158,5.4,5.4,41,0.00,,---,0.00,VWS V14.01,2013-07-05 03:53:00,
2013-07-04 22:58:00,76.8,52.0,30.03,SE,135,3.8,7.2,42,0.00,,---,0.00,VWS V14.01,2013-07-05 03:58:00,
2013-07-04 23:01:00,76.8,52.0,30.03,ESE,112,3.4,5.6,42,0.00,,---,0.00,VWS V14.01,2013-07-05 04:01:00,
2013-07-04 23:02:00,76.6,51.8,30.03,SE,135,6.3,6.3,42,0.00,,---,0.00,VWS V14.01,2013-07-05 04:02:00,
2013-07-04 23:03:00,76.6,51.8,30.03,SE,135,2.5,8.5,42,0.00,,---,0.00,VWS V14.01,2013-07-05 04:03:00,
2013-07-04 23:04:00,76.6,51.8,30.03,South,180,2.9,3.8,42,0.00,,---,0.00,VWS V14.01,2013-07-05 04:04:00,
2013-07-04 23:10:00,76.5,51.7,30.03,SSE,158,1.1,2.9,42,0.00,,---,0.00,VWS V14.01,2013-07-05 04:10:00,
2013-07-04 23:14:00,76.3,51.5,30.03,SSE,158,4.0,4.9,42,0.00,,---,0.00,VWS V14.01,2013-07-05 04:14:00,
2013-07-04 23:20:00,75.9,51.8,30.03,SSE,158,1.6,3.1,43,0.00,,---,0.00,VWS V14.01,2013-07-05 04:20:00,
2013-07-04 23:25:00,75.9,51.8,30.03,SSE,158,7.2,7.4,43,0.00,,---,0.00,VWS V14.01,2013-07-05 04:25:00,
2013-07-04 23:31:00,75.7,51.7,30.03,SSE,158,2.0,3.1,43,0.00,,---,0.00,VWS V14.01,2013-07-05 04:31:00,
2013-07-04 23:36:00,75.6,52.1,30.03,South,180,2.5,4.0,44,0.00,,---,0.00,VWS V14.01,2013-07-05 04:36:00,
2013-07-04 23:42:00,75.4,52.6,30.03,SSE,158,3.6,6.0,45,0.00,,---,0.00,VWS V14.01,2013-07-05 04:42:00,
2013-07-04 23:48:00,75.2,53.0,30.03,SW,225,3.6,7.2,46,0.00,,---,0.00,VWS V14.01,2013-07-05 04:48:00,
2013-07-04 23:54:00,75.0,53.4,30.03,SW,225,3.4,3.4,47,0.00,,---,0.00,VWS V14.01,2013-07-05 04:54:00,